Year,Month,Day,Hour,Minute,Value (Times are PST for temperature in C)
2006,06,15,00,00,14.60
2006,06,15,00,01,14.60
2006,06,15,00,02,14.60
2006,06,15,00,03,14.60
2006,06,15,00,04,14.60
2006,06,15,00,05,14.60
2006,06,15,00,06,14.60
2006,06,15,00,07,14.60
2006,06,15,00,08,14.50
2006,06,15,00,09,14.50
2006,06,15,00,10,14.50
2006,06,15,00,11,14.50
2006,06,15,00,12,14.50
2006,06,15,00,13,14.50
2006,06,15,00,14,14.50
2006,06,15,00,15,14.50
2006,06,15,00,16,14.50
2006,06,15,00,17,14.50
2006,06,15,00,18,14.50
2006,06,15,00,19,14.50
2006,06,15,00,20,14.50
2006,06,15,00,21,14.50
2006,06,15,00,22,14.60
2006,06,15,00,23,14.60
2006,06,15,00,24,14.60
2006,06,15,00,25,14.60
2006,06,15,00,26,14.60
2006,06,15,00,27,14.60
2006,06,15,00,28,14.60
2006,06,15,00,29,14.60
2006,06,15,00,30,14.60
2006,06,15,00,31,14.60
2006,06,15,00,32,14.60
2006,06,15,00,33,14.60
2006,06,15,00,34,14.60
2006,06,15,00,35,14.60
2006,06,15,00,36,14.50
2006,06,15,00,37,14.40
2006,06,15,00,38,14.30
2006,06,15,00,39,14.20
2006,06,15,00,40,14.10
2006,06,15,00,41,14.00
2006,06,15,00,42,14.00
2006,06,15,00,43,13.90
2006,06,15,00,44,13.80
2006,06,15,00,45,13.70
2006,06,15,00,46,13.60
2006,06,15,00,47,13.60
2006,06,15,00,48,13.50
2006,06,15,00,49,13.40
2006,06,15,00,50,13.30
2006,06,15,00,51,13.30
2006,06,15,00,52,13.20
2006,06,15,00,53,13.20
2006,06,15,00,54,13.20
2006,06,15,00,55,13.10
2006,06,15,00,56,13.10
2006,06,15,00,57,13.10
2006,06,15,00,58,13.00
2006,06,15,00,59,12.90
2006,06,15,01,00,12.90
2006,06,15,01,01,12.80
2006,06,15,01,02,12.80
2006,06,15,01,03,12.80
2006,06,15,01,04,12.70
2006,06,15,01,05,12.70
2006,06,15,01,06,12.70
2006,06,15,01,07,12.60
2006,06,15,01,08,12.60
2006,06,15,01,09,12.50
2006,06,15,01,10,12.50
2006,06,15,01,11,12.50
2006,06,15,01,12,12.40
2006,06,15,01,13,12.40
2006,06,15,01,14,12.30
2006,06,15,01,15,12.30
2006,06,15,01,16,12.30
2006,06,15,01,17,12.30
2006,06,15,01,18,12.20
2006,06,15,01,19,12.20
2006,06,15,01,20,12.10
2006,06,15,01,21,12.10
2006,06,15,01,22,12.10
2006,06,15,01,23,12.10
2006,06,15,01,24,12.00
2006,06,15,01,25,12.00
2006,06,15,01,26,12.00
2006,06,15,01,27,12.00
2006,06,15,01,28,12.00
2006,06,15,01,29,12.00
2006,06,15,01,30,12.00
2006,06,15,01,31,12.00
2006,06,15,01,32,12.00
2006,06,15,01,33,12.00
2006,06,15,01,34,12.00
2006,06,15,01,35,12.00
2006,06,15,01,36,12.10
2006,06,15,01,37,12.10
2006,06,15,01,38,12.10
2006,06,15,01,39,12.10
2006,06,15,01,40,12.10
2006,06,15,01,41,12.20
2006,06,15,01,42,12.20
2006,06,15,01,43,12.20
2006,06,15,01,44,12.20
2006,06,15,01,45,12.20
2006,06,15,01,46,12.30
2006,06,15,01,47,12.30
2006,06,15,01,48,12.30
2006,06,15,01,49,12.30
2006,06,15,01,50,12.20
2006,06,15,01,51,12.20
2006,06,15,01,52,12.10
2006,06,15,01,53,12.10
2006,06,15,01,54,12.10
2006,06,15,01,55,12.00
2006,06,15,01,56,12.00
2006,06,15,01,57,12.00
2006,06,15,01,58,11.90
2006,06,15,01,59,11.90
2006,06,15,02,00,11.90
2006,06,15,02,01,11.90
2006,06,15,02,02,11.90
2006,06,15,02,03,11.80
2006,06,15,02,04,11.80
2006,06,15,02,05,11.80
2006,06,15,02,06,11.80
2006,06,15,02,07,11.80
2006,06,15,02,08,11.80
2006,06,15,02,09,11.80
2006,06,15,02,10,11.80
2006,06,15,02,11,11.80
2006,06,15,02,12,11.70
2006,06,15,02,13,11.70
2006,06,15,02,14,11.70
2006,06,15,02,15,11.70
2006,06,15,02,16,11.70
2006,06,15,02,17,11.70
2006,06,15,02,18,11.70
2006,06,15,02,19,11.70
2006,06,15,02,20,11.60
2006,06,15,02,21,11.60
2006,06,15,02,22,11.60
2006,06,15,02,23,11.60
2006,06,15,02,24,11.60
2006,06,15,02,25,11.70
2006,06,15,02,26,11.70
2006,06,15,02,27,11.70
2006,06,15,02,28,11.70
2006,06,15,02,29,11.80
2006,06,15,02,30,11.80
2006,06,15,02,31,11.80
2006,06,15,02,32,11.80
2006,06,15,02,33,11.80
2006,06,15,02,34,11.80
2006,06,15,02,35,11.80
2006,06,15,02,36,11.80
2006,06,15,02,37,11.80
2006,06,15,02,38,11.80
2006,06,15,02,39,11.80
2006,06,15,02,40,11.80
2006,06,15,02,41,11.80
2006,06,15,02,42,11.80
2006,06,15,02,43,11.90
2006,06,15,02,44,11.90
2006,06,15,02,45,11.90
2006,06,15,02,46,11.90
2006,06,15,02,47,11.90
2006,06,15,02,48,11.90
2006,06,15,02,49,11.90
2006,06,15,02,50,11.90
2006,06,15,02,51,11.90
2006,06,15,02,52,11.90
2006,06,15,02,53,11.90
2006,06,15,02,54,11.90
2006,06,15,02,55,11.90
2006,06,15,02,56,11.90
2006,06,15,02,57,11.90
2006,06,15,02,58,12.00
2006,06,15,02,59,12.00
2006,06,15,03,00,12.00
2006,06,15,03,01,12.00
2006,06,15,03,02,12.00
2006,06,15,03,03,12.00
2006,06,15,03,04,12.00
2006,06,15,03,05,12.00
2006,06,15,03,06,12.00
2006,06,15,03,07,12.00
2006,06,15,03,08,12.00
2006,06,15,03,09,12.00
2006,06,15,03,10,12.00
2006,06,15,03,11,12.00
2006,06,15,03,12,12.00
2006,06,15,03,13,12.00
2006,06,15,03,14,12.00
2006,06,15,03,15,12.00
2006,06,15,03,16,12.10
2006,06,15,03,17,12.10
2006,06,15,03,18,12.10
2006,06,15,03,19,12.10
2006,06,15,03,20,12.20
2006,06,15,03,21,12.20
2006,06,15,03,22,12.20
2006,06,15,03,23,12.20
2006,06,15,03,24,12.20
2006,06,15,03,25,12.30
2006,06,15,03,26,12.30
2006,06,15,03,27,12.30
2006,06,15,03,28,12.30
2006,06,15,03,29,12.30
2006,06,15,03,30,12.30
2006,06,15,03,31,12.30
2006,06,15,03,32,12.30
2006,06,15,03,33,12.30
2006,06,15,03,34,12.30
2006,06,15,03,35,12.30
2006,06,15,03,36,12.30
2006,06,15,03,37,12.30
2006,06,15,03,38,12.30
2006,06,15,03,39,12.30
2006,06,15,03,40,12.30
2006,06,15,03,41,12.30
2006,06,15,03,42,12.30
2006,06,15,03,43,12.30
2006,06,15,03,44,12.30
2006,06,15,03,45,12.30
2006,06,15,03,46,12.30
2006,06,15,03,47,12.30
2006,06,15,03,48,12.30
2006,06,15,03,49,12.30
2006,06,15,03,50,12.30
2006,06,15,03,51,12.30
2006,06,15,03,52,12.30
2006,06,15,03,53,12.30
2006,06,15,03,54,12.30
2006,06,15,03,55,12.20
2006,06,15,03,56,12.20
2006,06,15,03,57,12.20
2006,06,15,03,58,12.20
2006,06,15,03,59,12.20
2006,06,15,04,00,12.20
2006,06,15,04,01,12.20
2006,06,15,04,02,12.20
2006,06,15,04,03,12.20
2006,06,15,04,04,12.10
2006,06,15,04,05,12.10
2006,06,15,04,06,12.10
2006,06,15,04,07,12.10
2006,06,15,04,08,12.10
2006,06,15,04,09,12.20
2006,06,15,04,10,12.20
2006,06,15,04,11,12.20
2006,06,15,04,12,12.20
2006,06,15,04,13,12.20
2006,06,15,04,14,12.20
2006,06,15,04,15,12.20
2006,06,15,04,16,12.20
2006,06,15,04,17,12.20
2006,06,15,04,18,12.20
2006,06,15,04,19,12.20
2006,06,15,04,20,12.20
2006,06,15,04,21,12.20
2006,06,15,04,22,12.20
2006,06,15,04,23,12.30
2006,06,15,04,24,12.30
2006,06,15,04,25,12.30
2006,06,15,04,26,12.30
2006,06,15,04,27,12.30
2006,06,15,04,28,12.30
2006,06,15,04,29,12.30
2006,06,15,04,30,12.30
2006,06,15,04,31,12.30
2006,06,15,04,32,12.30
2006,06,15,04,33,12.30
2006,06,15,04,34,12.30
2006,06,15,04,35,12.30
2006,06,15,04,36,12.30
2006,06,15,04,37,12.30
2006,06,15,04,38,12.30
2006,06,15,04,39,12.30
2006,06,15,04,40,12.30
2006,06,15,04,41,12.30
2006,06,15,04,42,12.30
2006,06,15,04,43,12.30
2006,06,15,04,44,12.30
2006,06,15,04,45,12.40
2006,06,15,04,46,12.40
2006,06,15,04,47,12.40
2006,06,15,04,48,12.40
2006,06,15,04,49,12.40
2006,06,15,04,50,12.40
2006,06,15,04,51,12.40
2006,06,15,04,52,12.50
2006,06,15,04,53,12.50
2006,06,15,04,54,12.50
2006,06,15,04,55,12.50
2006,06,15,04,56,12.50
2006,06,15,04,57,12.50
2006,06,15,04,58,12.50
2006,06,15,04,59,12.50
2006,06,15,05,00,12.50
2006,06,15,05,01,12.50
2006,06,15,05,02,12.50
2006,06,15,05,03,12.60
2006,06,15,05,04,12.60
2006,06,15,05,05,12.60
2006,06,15,05,06,12.60
2006,06,15,05,07,12.60
2006,06,15,05,08,12.60
2006,06,15,05,09,12.60
2006,06,15,05,10,12.60
2006,06,15,05,11,12.60
2006,06,15,05,12,12.60
2006,06,15,05,13,12.60
2006,06,15,05,14,12.60
2006,06,15,05,15,12.60
2006,06,15,05,16,12.60
2006,06,15,05,17,12.60
2006,06,15,05,18,12.60
2006,06,15,05,19,12.60
2006,06,15,05,20,12.60
2006,06,15,05,21,12.60
2006,06,15,05,22,12.60
2006,06,15,05,23,12.60
2006,06,15,05,24,12.60
2006,06,15,05,25,12.60
2006,06,15,05,26,12.60
2006,06,15,05,27,12.60
2006,06,15,05,28,12.60
2006,06,15,05,29,12.60
2006,06,15,05,30,12.60
2006,06,15,05,31,12.60
2006,06,15,05,32,12.60
2006,06,15,05,33,12.60
2006,06,15,05,34,12.60
2006,06,15,05,35,12.60
2006,06,15,05,36,12.60
2006,06,15,05,37,12.60
2006,06,15,05,38,12.60
2006,06,15,05,39,12.60
2006,06,15,05,40,12.60
2006,06,15,05,41,12.60
2006,06,15,05,42,12.60
2006,06,15,05,43,12.60
2006,06,15,05,44,12.60
2006,06,15,05,45,12.60
2006,06,15,05,46,12.60
2006,06,15,05,47,12.60
2006,06,15,05,48,12.60
2006,06,15,05,49,12.60
2006,06,15,05,50,12.60
2006,06,15,05,51,12.60
2006,06,15,05,52,12.60
2006,06,15,05,53,12.60
2006,06,15,05,54,12.60
2006,06,15,05,55,12.60
2006,06,15,05,56,12.60
2006,06,15,05,57,12.60
2006,06,15,05,58,12.60
2006,06,15,05,59,12.70
2006,06,15,06,00,12.70
2006,06,15,06,01,12.70
2006,06,15,06,02,12.70
2006,06,15,06,03,12.70
2006,06,15,06,04,12.70
2006,06,15,06,05,12.70
2006,06,15,06,06,12.70
2006,06,15,06,07,12.70
2006,06,15,06,08,12.70
2006,06,15,06,09,12.70
2006,06,15,06,10,12.70
2006,06,15,06,11,12.70
2006,06,15,06,12,12.70
2006,06,15,06,13,12.70
2006,06,15,06,14,12.70
2006,06,15,06,15,12.70
2006,06,15,06,16,12.70
2006,06,15,06,17,12.70
2006,06,15,06,18,12.70
2006,06,15,06,19,12.70
2006,06,15,06,20,12.70
2006,06,15,06,21,12.70
2006,06,15,06,22,12.70
2006,06,15,06,23,12.70
2006,06,15,06,24,12.70
2006,06,15,06,25,12.70
2006,06,15,06,26,12.70
2006,06,15,06,27,12.70
2006,06,15,06,28,12.70
2006,06,15,06,29,12.70
2006,06,15,06,30,12.70
2006,06,15,06,31,12.70
2006,06,15,06,32,12.70
2006,06,15,06,33,12.70
2006,06,15,06,34,12.70
2006,06,15,06,35,12.70
2006,06,15,06,36,12.70
2006,06,15,06,37,12.70
2006,06,15,06,38,12.80
2006,06,15,06,39,12.80
2006,06,15,06,40,12.80
2006,06,15,06,41,12.80
2006,06,15,06,42,12.80
2006,06,15,06,43,12.80
2006,06,15,06,44,12.80
2006,06,15,06,45,12.80
2006,06,15,06,46,12.80
2006,06,15,06,47,12.80
2006,06,15,06,48,12.80
2006,06,15,06,49,12.80
2006,06,15,06,50,12.80
2006,06,15,06,51,12.90
2006,06,15,06,52,12.90
2006,06,15,06,53,12.90
2006,06,15,06,54,12.90
2006,06,15,06,55,12.90
2006,06,15,06,56,12.90
2006,06,15,06,57,12.90
2006,06,15,06,58,12.90
2006,06,15,06,59,13.00
2006,06,15,07,00,13.00
2006,06,15,07,01,13.00
2006,06,15,07,02,13.00
2006,06,15,07,03,13.00
2006,06,15,07,04,13.00
2006,06,15,07,05,13.00
2006,06,15,07,06,13.00
2006,06,15,07,07,13.00
2006,06,15,07,08,13.10
2006,06,15,07,09,13.10
2006,06,15,07,10,13.10
2006,06,15,07,11,13.10
2006,06,15,07,12,13.10
2006,06,15,07,13,13.10
2006,06,15,07,14,13.20
2006,06,15,07,15,13.20
2006,06,15,07,16,13.20
2006,06,15,07,17,13.20
2006,06,15,07,18,13.30
2006,06,15,07,19,13.30
2006,06,15,07,20,13.30
2006,06,15,07,21,13.30
2006,06,15,07,22,13.30
2006,06,15,07,23,13.30
2006,06,15,07,24,13.30
2006,06,15,07,25,13.40
2006,06,15,07,26,13.40
2006,06,15,07,27,13.40
2006,06,15,07,28,13.40
2006,06,15,07,29,13.50
2006,06,15,07,30,13.50
2006,06,15,07,31,13.50
2006,06,15,07,32,13.50
2006,06,15,07,33,13.50
2006,06,15,07,34,13.60
2006,06,15,07,35,13.60
2006,06,15,07,36,13.60
2006,06,15,07,37,13.60
2006,06,15,07,38,13.60
2006,06,15,07,39,13.70
2006,06,15,07,40,13.70
2006,06,15,07,41,13.70
2006,06,15,07,42,13.70
2006,06,15,07,43,13.70
2006,06,15,07,44,13.70
2006,06,15,07,45,13.70
2006,06,15,07,46,13.70
2006,06,15,07,47,13.70
2006,06,15,07,48,13.80
2006,06,15,07,49,13.80
2006,06,15,07,50,13.80
2006,06,15,07,51,13.70
2006,06,15,07,52,13.80
2006,06,15,07,53,13.80
2006,06,15,07,54,13.80
2006,06,15,07,55,13.80
2006,06,15,07,56,13.80
2006,06,15,07,57,13.80
2006,06,15,07,58,13.80
2006,06,15,07,59,13.90
2006,06,15,08,00,13.90
2006,06,15,08,01,13.90
2006,06,15,08,02,13.90
2006,06,15,08,03,13.90
2006,06,15,08,04,13.90
2006,06,15,08,05,13.90
2006,06,15,08,06,13.90
2006,06,15,08,07,13.90
2006,06,15,08,08,14.00
2006,06,15,08,09,14.00
2006,06,15,08,10,14.00
2006,06,15,08,11,14.00
2006,06,15,08,12,14.00
2006,06,15,08,13,14.00
2006,06,15,08,14,14.10
2006,06,15,08,15,14.10
2006,06,15,08,16,14.10
2006,06,15,08,17,14.20
2006,06,15,08,18,14.20
2006,06,15,08,19,14.20
2006,06,15,08,20,14.20
2006,06,15,08,21,14.20
2006,06,15,08,22,14.30
2006,06,15,08,23,14.30
2006,06,15,08,24,14.30
2006,06,15,08,25,14.40
2006,06,15,08,26,14.40
2006,06,15,08,27,14.40
2006,06,15,08,28,14.40
2006,06,15,08,29,14.40
2006,06,15,08,30,14.40
2006,06,15,08,31,14.50
2006,06,15,08,32,14.50
2006,06,15,08,33,14.50
2006,06,15,08,34,14.50
2006,06,15,08,35,14.50
2006,06,15,08,36,14.60
2006,06,15,08,37,14.60
2006,06,15,08,38,14.60
2006,06,15,08,39,14.60
2006,06,15,08,40,14.70
2006,06,15,08,41,14.70
2006,06,15,08,42,14.70
2006,06,15,08,43,14.70
2006,06,15,08,44,14.80
2006,06,15,08,45,14.80
2006,06,15,08,46,14.80
2006,06,15,08,47,14.80
2006,06,15,08,48,14.80
2006,06,15,08,49,14.80
2006,06,15,08,50,14.80
2006,06,15,08,51,14.90
2006,06,15,08,52,14.90
2006,06,15,08,53,15.00
2006,06,15,08,54,15.00
2006,06,15,08,55,15.00
2006,06,15,08,56,15.00
2006,06,15,08,57,15.00
2006,06,15,08,58,15.00
2006,06,15,08,59,15.00
2006,06,15,09,00,15.10
2006,06,15,09,01,15.10
2006,06,15,09,02,15.20
2006,06,15,09,03,15.20
2006,06,15,09,04,15.20
2006,06,15,09,05,15.30
2006,06,15,09,06,15.30
2006,06,15,09,07,15.30
2006,06,15,09,08,15.30
2006,06,15,09,09,15.40
2006,06,15,09,10,15.40
2006,06,15,09,11,15.40
2006,06,15,09,12,15.50
2006,06,15,09,13,15.50
2006,06,15,09,14,15.60
2006,06,15,09,15,15.70
2006,06,15,09,16,15.80
2006,06,15,09,17,15.90
2006,06,15,09,18,16.00
2006,06,15,09,19,16.10
2006,06,15,09,20,16.10
2006,06,15,09,21,16.10
2006,06,15,09,22,16.10
2006,06,15,09,23,16.00
2006,06,15,09,24,15.90
2006,06,15,09,25,15.90
2006,06,15,09,26,15.80
2006,06,15,09,27,15.80
2006,06,15,09,28,15.80
2006,06,15,09,29,15.80
2006,06,15,09,30,15.80
2006,06,15,09,31,15.80
2006,06,15,09,32,15.90
2006,06,15,09,33,16.00
2006,06,15,09,34,16.10
2006,06,15,09,35,16.20
2006,06,15,09,36,16.30
2006,06,15,09,37,16.30
2006,06,15,09,38,16.30
2006,06,15,09,39,16.40
2006,06,15,09,40,16.40
2006,06,15,09,41,16.40
2006,06,15,09,42,16.40
2006,06,15,09,43,16.40
2006,06,15,09,44,16.40
2006,06,15,09,45,16.30
2006,06,15,09,46,16.30
2006,06,15,09,47,16.30
2006,06,15,09,48,16.20
2006,06,15,09,49,16.10
2006,06,15,09,50,16.10
2006,06,15,09,51,16.10
2006,06,15,09,52,16.10
2006,06,15,09,53,16.10
2006,06,15,09,54,16.10
2006,06,15,09,55,16.10
2006,06,15,09,56,16.10
2006,06,15,09,57,16.10
2006,06,15,09,58,16.10
2006,06,15,09,59,16.10
2006,06,15,10,00,16.10
2006,06,15,10,01,16.10
2006,06,15,10,02,16.20
2006,06,15,10,03,16.10
2006,06,15,10,04,16.20
2006,06,15,10,05,16.20
2006,06,15,10,06,16.20
2006,06,15,10,07,16.30
2006,06,15,10,08,16.30
2006,06,15,10,09,16.30
2006,06,15,10,10,16.40
2006,06,15,10,11,16.40
2006,06,15,10,12,16.40
2006,06,15,10,13,16.40
2006,06,15,10,14,16.40
2006,06,15,10,15,16.40
2006,06,15,10,16,16.40
2006,06,15,10,17,16.40
2006,06,15,10,18,16.50
2006,06,15,10,19,16.60
2006,06,15,10,20,16.70
2006,06,15,10,21,16.70
2006,06,15,10,22,16.70
2006,06,15,10,23,16.70
2006,06,15,10,24,16.70
2006,06,15,10,25,16.70
2006,06,15,10,26,16.70
2006,06,15,10,27,16.70
2006,06,15,10,28,16.70
2006,06,15,10,29,16.70
2006,06,15,10,30,16.70
2006,06,15,10,31,16.70
2006,06,15,10,32,16.70
2006,06,15,10,33,16.80
2006,06,15,10,34,16.90
2006,06,15,10,35,16.90
2006,06,15,10,36,17.00
2006,06,15,10,37,17.00
2006,06,15,10,38,17.00
2006,06,15,10,39,17.00
2006,06,15,10,40,17.00
2006,06,15,10,41,17.00
2006,06,15,10,42,17.10
2006,06,15,10,43,17.10
2006,06,15,10,44,17.20
2006,06,15,10,45,17.20
2006,06,15,10,46,17.30
2006,06,15,10,47,17.30
2006,06,15,10,48,17.40
2006,06,15,10,49,17.50
2006,06,15,10,50,17.60
2006,06,15,10,51,17.60
2006,06,15,10,52,17.70
2006,06,15,10,53,17.90
2006,06,15,10,54,17.90
2006,06,15,10,55,17.90
2006,06,15,10,56,17.80
2006,06,15,10,57,17.80
2006,06,15,10,58,17.90
2006,06,15,10,59,17.90
2006,06,15,11,00,17.90
2006,06,15,11,01,17.80
2006,06,15,11,02,17.70
2006,06,15,11,03,17.70
2006,06,15,11,04,17.70
2006,06,15,11,05,17.70
2006,06,15,11,06,17.70
2006,06,15,11,07,17.70
2006,06,15,11,08,17.70
2006,06,15,11,09,17.80
2006,06,15,11,10,17.80
2006,06,15,11,11,17.90
2006,06,15,11,12,17.90
2006,06,15,11,13,17.90
2006,06,15,11,14,17.90
2006,06,15,11,15,17.90
2006,06,15,11,16,18.00
2006,06,15,11,17,18.10
2006,06,15,11,18,18.20
2006,06,15,11,19,18.20
2006,06,15,11,20,18.20
2006,06,15,11,21,18.30
2006,06,15,11,22,18.30
2006,06,15,11,23,18.30
2006,06,15,11,24,18.30
2006,06,15,11,25,18.30
2006,06,15,11,26,18.30
2006,06,15,11,27,18.30
2006,06,15,11,28,18.30
2006,06,15,11,29,18.30
2006,06,15,11,30,18.20
2006,06,15,11,31,18.20
2006,06,15,11,32,18.20
2006,06,15,11,33,18.20
2006,06,15,11,34,18.30
2006,06,15,11,35,18.40
2006,06,15,11,36,18.50
2006,06,15,11,37,18.50
2006,06,15,11,38,18.50
2006,06,15,11,39,18.50
2006,06,15,11,40,18.50
2006,06,15,11,41,18.40
2006,06,15,11,42,18.40
2006,06,15,11,43,18.40
2006,06,15,11,44,18.40
2006,06,15,11,45,18.40
2006,06,15,11,46,18.50
2006,06,15,11,47,18.60
2006,06,15,11,48,18.60
2006,06,15,11,49,18.60
2006,06,15,11,50,18.70
2006,06,15,11,51,18.70
2006,06,15,11,52,18.80
2006,06,15,11,53,18.80
2006,06,15,11,54,18.80
2006,06,15,11,55,18.80
2006,06,15,11,56,18.90
2006,06,15,11,57,18.90
2006,06,15,11,58,18.90
2006,06,15,11,59,18.90
2006,06,15,12,00,18.90
2006,06,15,12,01,18.90
2006,06,15,12,02,18.90
2006,06,15,12,03,19.00
2006,06,15,12,04,19.10
2006,06,15,12,05,19.10
2006,06,15,12,06,19.10
2006,06,15,12,07,19.10
2006,06,15,12,08,19.10
2006,06,15,12,09,19.10
2006,06,15,12,10,18.90
2006,06,15,12,11,18.90
2006,06,15,12,12,18.70
2006,06,15,12,13,18.60
2006,06,15,12,14,18.50
2006,06,15,12,15,18.30
2006,06,15,12,16,18.20
2006,06,15,12,17,18.00
2006,06,15,12,18,17.90
2006,06,15,12,19,17.80
2006,06,15,12,20,17.80
2006,06,15,12,21,17.80
2006,06,15,12,22,17.80
2006,06,15,12,23,17.90
2006,06,15,12,24,17.90
2006,06,15,12,25,17.90
2006,06,15,12,26,18.00
2006,06,15,12,27,18.10
2006,06,15,12,28,18.10
2006,06,15,12,29,18.10
2006,06,15,12,30,18.10
2006,06,15,12,31,18.10
2006,06,15,12,32,18.10
2006,06,15,12,33,18.00
2006,06,15,12,34,17.90
2006,06,15,12,35,17.90
2006,06,15,12,36,17.90
2006,06,15,12,37,18.00
2006,06,15,12,38,18.10
2006,06,15,12,39,18.20
2006,06,15,12,40,18.20
2006,06,15,12,41,18.20
2006,06,15,12,42,18.20
2006,06,15,12,43,18.20
2006,06,15,12,44,18.20
2006,06,15,12,45,18.20
2006,06,15,12,46,18.10
2006,06,15,12,47,18.00
2006,06,15,12,48,17.90
2006,06,15,12,49,17.90
2006,06,15,12,50,17.90
2006,06,15,12,51,17.90
2006,06,15,12,52,18.10
2006,06,15,12,53,18.10
2006,06,15,12,54,18.10
2006,06,15,12,55,18.10
2006,06,15,12,56,18.10
2006,06,15,12,57,18.10
2006,06,15,12,58,18.20
2006,06,15,12,59,18.20
2006,06,15,13,00,18.20
2006,06,15,13,01,18.30
2006,06,15,13,02,18.20
2006,06,15,13,03,18.20
2006,06,15,13,04,18.20
2006,06,15,13,05,18.20
2006,06,15,13,06,18.20
2006,06,15,13,07,18.20
2006,06,15,13,08,18.20
2006,06,15,13,09,18.20
2006,06,15,13,10,18.20
2006,06,15,13,11,18.20
2006,06,15,13,12,18.30
2006,06,15,13,13,18.30
2006,06,15,13,14,18.30
2006,06,15,13,15,18.40
2006,06,15,13,16,18.40
2006,06,15,13,17,18.40
2006,06,15,13,18,18.40
2006,06,15,13,19,18.40
2006,06,15,13,20,18.40
2006,06,15,13,21,18.50
2006,06,15,13,22,18.40
2006,06,15,13,23,18.30
2006,06,15,13,24,18.30
2006,06,15,13,25,18.20
2006,06,15,13,26,18.20
2006,06,15,13,27,18.20
2006,06,15,13,28,18.10
2006,06,15,13,29,18.10
2006,06,15,13,30,18.10
2006,06,15,13,31,18.10
2006,06,15,13,32,18.10
2006,06,15,13,33,18.20
2006,06,15,13,34,18.20
2006,06,15,13,35,18.30
2006,06,15,13,36,18.30
2006,06,15,13,37,18.30
2006,06,15,13,38,18.30
2006,06,15,13,39,18.20
2006,06,15,13,40,18.20
2006,06,15,13,41,18.30
2006,06,15,13,42,18.30
2006,06,15,13,43,18.40
2006,06,15,13,44,18.40
2006,06,15,13,45,18.50
2006,06,15,13,46,18.50
2006,06,15,13,47,18.60
2006,06,15,13,48,18.60
2006,06,15,13,49,18.50
2006,06,15,13,50,18.40
2006,06,15,13,51,18.40
2006,06,15,13,52,18.40
2006,06,15,13,53,18.30
2006,06,15,13,54,18.20
2006,06,15,13,55,18.30
2006,06,15,13,56,18.30
2006,06,15,13,57,18.40
2006,06,15,13,58,18.40
2006,06,15,13,59,18.50
2006,06,15,14,00,18.60
2006,06,15,14,01,18.60
2006,06,15,14,02,18.50
2006,06,15,14,03,18.50
2006,06,15,14,04,18.50
2006,06,15,14,05,18.60
2006,06,15,14,06,18.60
2006,06,15,14,07,18.70
2006,06,15,14,08,18.70
2006,06,15,14,09,18.80
2006,06,15,14,10,18.90
2006,06,15,14,11,18.90
2006,06,15,14,12,19.00
2006,06,15,14,13,19.10
2006,06,15,14,14,19.20
2006,06,15,14,15,19.30
2006,06,15,14,16,19.30
2006,06,15,14,17,19.30
2006,06,15,14,18,19.30
2006,06,15,14,19,19.30
2006,06,15,14,20,19.20
2006,06,15,14,21,19.00
2006,06,15,14,22,18.90
2006,06,15,14,23,18.70
2006,06,15,14,24,18.70
2006,06,15,14,25,18.70
2006,06,15,14,26,18.70
2006,06,15,14,27,18.80
2006,06,15,14,28,18.90
2006,06,15,14,29,18.90
2006,06,15,14,30,19.00
2006,06,15,14,31,19.10
2006,06,15,14,32,19.00
2006,06,15,14,33,18.90
2006,06,15,14,34,18.70
2006,06,15,14,35,18.60
2006,06,15,14,36,18.40
2006,06,15,14,37,18.30
2006,06,15,14,38,18.20
2006,06,15,14,39,18.20
2006,06,15,14,40,18.30
2006,06,15,14,41,18.30
2006,06,15,14,42,18.30
2006,06,15,14,43,18.30
2006,06,15,14,44,18.30
2006,06,15,14,45,18.30
2006,06,15,14,46,18.20
2006,06,15,14,47,18.20
2006,06,15,14,48,18.20
2006,06,15,14,49,18.20
2006,06,15,14,50,18.20
2006,06,15,14,51,18.10
2006,06,15,14,52,18.10
2006,06,15,14,53,18.00
2006,06,15,14,54,17.90
2006,06,15,14,55,17.90
2006,06,15,14,56,17.90
2006,06,15,14,57,17.90
2006,06,15,14,58,17.90
2006,06,15,14,59,17.90
2006,06,15,15,00,18.00
2006,06,15,15,01,18.10
2006,06,15,15,02,18.20
2006,06,15,15,03,18.20
2006,06,15,15,04,18.20
2006,06,15,15,05,18.30
2006,06,15,15,06,18.40
2006,06,15,15,07,18.40
2006,06,15,15,08,18.40
2006,06,15,15,09,18.40
2006,06,15,15,10,18.50
2006,06,15,15,11,18.50
2006,06,15,15,12,18.50
2006,06,15,15,13,18.50
2006,06,15,15,14,18.50
2006,06,15,15,15,18.50
2006,06,15,15,16,18.50
2006,06,15,15,17,18.60
2006,06,15,15,18,18.60
2006,06,15,15,19,18.70
2006,06,15,15,20,18.80
2006,06,15,15,21,18.90
2006,06,15,15,22,18.90
2006,06,15,15,23,19.10
2006,06,15,15,24,19.10
2006,06,15,15,25,19.20
2006,06,15,15,26,19.30
2006,06,15,15,27,19.40
2006,06,15,15,28,19.50
2006,06,15,15,29,19.60
2006,06,15,15,30,19.70
2006,06,15,15,31,19.60
2006,06,15,15,32,19.50
2006,06,15,15,33,19.40
2006,06,15,15,34,19.40
2006,06,15,15,35,19.30
2006,06,15,15,36,19.30
2006,06,15,15,37,19.20
2006,06,15,15,38,19.10
2006,06,15,15,39,19.10
2006,06,15,15,40,19.10
2006,06,15,15,41,19.10
2006,06,15,15,42,19.10
2006,06,15,15,43,19.10
2006,06,15,15,44,19.10
2006,06,15,15,45,19.20
2006,06,15,15,46,19.30
2006,06,15,15,47,19.40
2006,06,15,15,48,19.50
2006,06,15,15,49,19.70
2006,06,15,15,50,19.80
2006,06,15,15,51,19.90
2006,06,15,15,52,20.00
2006,06,15,15,53,20.10
2006,06,15,15,54,20.10
2006,06,15,15,55,20.10
2006,06,15,15,56,20.20
2006,06,15,15,57,20.20
2006,06,15,15,58,20.40
2006,06,15,15,59,20.40
2006,06,15,16,00,20.40
2006,06,15,16,01,20.40
2006,06,15,16,02,20.30
2006,06,15,16,03,20.30
2006,06,15,16,04,20.30
2006,06,15,16,05,20.30
2006,06,15,16,06,20.30
2006,06,15,16,07,20.20
2006,06,15,16,08,20.10
2006,06,15,16,09,20.10
2006,06,15,16,10,20.10
2006,06,15,16,11,20.10
2006,06,15,16,12,20.00
2006,06,15,16,13,19.90
2006,06,15,16,14,19.90
2006,06,15,16,15,19.90
2006,06,15,16,16,19.90
2006,06,15,16,17,19.90
2006,06,15,16,18,19.90
2006,06,15,16,19,19.90
2006,06,15,16,20,19.90
2006,06,15,16,21,19.90
2006,06,15,16,22,19.90
2006,06,15,16,23,19.90
2006,06,15,16,24,19.80
2006,06,15,16,25,19.70
2006,06,15,16,26,19.60
2006,06,15,16,27,19.60
2006,06,15,16,28,19.60
2006,06,15,16,29,19.60
2006,06,15,16,30,19.60
2006,06,15,16,31,19.60
2006,06,15,16,32,19.60
2006,06,15,16,33,19.60
2006,06,15,16,34,19.70
2006,06,15,16,35,19.70
2006,06,15,16,36,19.70
2006,06,15,16,37,19.70
2006,06,15,16,38,19.70
2006,06,15,16,39,19.60
2006,06,15,16,40,19.60
2006,06,15,16,41,19.50
2006,06,15,16,42,19.40
2006,06,15,16,43,19.40
2006,06,15,16,44,19.30
2006,06,15,16,45,19.30
2006,06,15,16,46,19.20
2006,06,15,16,47,19.10
2006,06,15,16,48,19.10
2006,06,15,16,49,19.10
2006,06,15,16,50,19.00
2006,06,15,16,51,18.90
2006,06,15,16,52,18.80
2006,06,15,16,53,18.70
2006,06,15,16,54,18.60
2006,06,15,16,55,18.50
2006,06,15,16,56,18.40
2006,06,15,16,57,18.40
2006,06,15,16,58,18.40
2006,06,15,16,59,18.50
2006,06,15,17,00,18.50
2006,06,15,17,01,18.60
2006,06,15,17,02,18.60
2006,06,15,17,03,18.50
2006,06,15,17,04,18.40
2006,06,15,17,05,18.40
2006,06,15,17,06,18.30
2006,06,15,17,07,18.20
2006,06,15,17,08,18.20
2006,06,15,17,09,18.20
2006,06,15,17,10,18.20
2006,06,15,17,11,18.20
2006,06,15,17,12,18.30
2006,06,15,17,13,18.30
2006,06,15,17,14,18.40
2006,06,15,17,15,18.40
2006,06,15,17,16,18.40
2006,06,15,17,17,18.30
2006,06,15,17,18,18.30
2006,06,15,17,19,18.30